Simultaneous Nadir Overpasses (SNOs) Predictions

Prediction of SNOs between AURA and NPP Satellite Orbit:

Table of predicted SNOs for the next 14.0 days since TLE Epoch: 10/21/2016
Index Date (AURA) Time (AURA) Lat,Lon (AURA) SZA (AURA ) Date (NPP) Time (NPP) Lat,Lon (NPP) SZA (NPP ) Distance(km) Time Diff (sec)
1 10/23/2016 10:35:14 -79.31, 96.60 76.60 10/23/2016 10:34:38 -79.30, 96.48 76.54 2.62 36
2 10/23/2016 11:24:31 79.64, -93.44 102.96 10/23/2016 11:25:12 79.65, -93.38 102.92 1.32 41
3 10/26/2016 02:51:39 -79.49,-146.27 75.95 10/26/2016 02:51:28 -79.49,-146.24 75.95 0.65 11
4 10/26/2016 03:41:00 79.67, 22.65 103.82 10/26/2016 03:42:07 79.67, 22.56 103.78 1.87 67
5 10/28/2016 18:18:45 79.35, 161.00 105.11 10/28/2016 18:17:42 79.36, 161.15 105.13 3.14 63
6 10/28/2016 19:08:08 -79.52, -30.23 75.11 10/28/2016 19:08:23 -79.52, -30.30 75.11 1.61 15
7 10/31/2016 10:35:12 79.40, -82.76 105.89 10/31/2016 10:34:35 79.41, -82.69 105.90 1.67 37
8 10/31/2016 11:24:34 -79.61, 86.30 74.39 10/31/2016 11:25:15 -79.60, 86.17 74.39 2.91 41
9 11/03/2016 02:51:39 79.49, 33.68 106.61 11/03/2016 02:51:28 79.49, 33.73 106.60 1.11 11




NCC Satellite Simultaneous Nadir Overpasses (SNOs) Prediction Service
